KF6ILA Weather Reports


Display with metric or nautical units.
time (UTC)temp
F
wind
direction
speed
MPH
gust
MPH
rain 1hr
in
rain 24hr
in
rain mn
in
humidity
%
barometer
mb
20260505225703 47 289 21.0 29.0 0.00 0.50 0.10 80 1009.8
20260505225206 47 263 11.0 27.0 0.00 0.50 0.10 81 1010.1
20260505224709 48 275 12.0 30.0 0.00 0.50 0.10 80 1010.2
20260505223715 48 257 12.0 30.0 0.00 0.50 0.10 82 1010.3
20260505223218 47 260 19.0 30.0 0.00 0.50 0.10 80 1010.3
20260505222721 48 271 15.0 28.0 0.00 0.50 0.10 81 1010.5
20260505222224 49 255 20.0 29.0 0.00 0.50 0.10 81 1010.4
20260505220733 48 265 20.0 30.0 0.00 0.50 0.10 81 1011.3
20260505220236 49 251 20.0 29.0 0.00 0.50 0.10 82 1011.3
20260505215739 48 263 15.0 28.0 0.00 0.50 0.10 85 1011.3
20260505215242 47 260 22.0 28.0 0.00 0.50 0.10 85 1011.4
20260505214745 48 282 11.0 26.0 0.00 0.50 0.10 88 1011.3
20260505214248 47 266 19.0 30.0 0.00 0.50 0.10 90 1011.4
20260505213752 46 257 16.0 30.0 0.00 0.50 0.10 91 1011.6
20260505213254 46 269 14.0 24.0 0.00 0.50 0.10 92 1011.5
20260505212833 45 261 15.0 25.0 0.00 0.50 0.10 93 1011.7
20260505212757 45 261 15.0 25.0 0.00 0.50 0.10 93 1011.7
20260505212300 45 261 18.0 25.0 0.00 0.50 0.10 93 1011.6
20260505211803 45 267 14.0 26.0 0.00 0.50 0.10 93 1011.7
20260505211346 45 259 14.0 27.0 0.00 0.50 0.10 93 1011.8
20260505211306 45 259 14.0 27.0 0.00 0.50 0.10 93 1011.8
20260505210809 46 261 18.0 28.0 0.00 0.50 0.10 92 1011.8
20260505210312 46 268 17.0 30.0 0.00 0.50 0.10 93 1011.7
20260505205850 45 260 20.0 30.0 0.00 0.50 0.10 93 1011.9
20260505205816 45 260 20.0 30.0 0.00 0.50 0.10 93 1011.9
20260505205318 45 253 16.0 28.0 0.00 0.50 0.10 93 1012.0
20260505204324 45 254 14.0 26.0 0.00 0.50 0.10 94 1011.7
20260505203330 46 262 15.0 30.0 0.00 0.50 0.10 97 1011.6
20260505202833 46 252 20.0 30.0 0.00 0.50 0.10 97 1011.6
20260505201839 45 254 19.0 30.0 0.00 0.50 0.10 99 1011.9
20260505201342 45 267 20.0 28.0 0.00 0.50 0.10 100 1011.8
20260505200845 44 265 17.0 29.0 0.00 0.50 0.10 100 1011.7
20260505200348 44 267 19.0 29.0 0.00 0.50 0.10 100 1011.6
20260505195851 44 243 17.0 27.0 0.00 0.50 0.10 100 1012.0
20260505195354 44 272 13.0 25.0 0.00 0.50 0.10 100 1011.8
20260505194857 43 261 15.0 30.0 0.00 0.50 0.10 100 1011.8
20260505194400 43 269 20.0 30.0 0.01 0.50 0.10 100 1011.9
20260505193903 43 262 20.0 27.0 0.01 0.50 0.10 100 1011.8
20260505193406 43 256 17.0 32.0 0.01 0.50 0.10 100 1011.9
20260505192909 43 256 20.0 32.0 0.01 0.50 0.10 100 1012.0
20260505192412 43 263 20.0 30.0 0.01 0.50 0.10 100 1011.9
20260505191915 42 255 22.0 30.0 0.01 0.50 0.10 100 1012.1
20260505191418 42 258 21.0 30.0 0.01 0.50 0.10 100 1011.9
20260505190921 42 253 21.0 30.0 0.01 0.50 0.10 100 1011.8
20260505190425 42 254 19.0 30.0 0.02 0.50 0.10 100 1011.9
20260505185927 42 257 16.0 28.0 0.02 0.50 0.10 100 1011.8
20260505185431 42 253 14.0 28.0 0.02 0.50 0.10 100 1011.9
20260505184933 42 258 17.0 28.0 0.02 0.50 0.10 100 1011.8
20260505184436 42 264 13.0 24.0 0.02 0.50 0.10 100 1011.8
20260505183939 42 259 12.0 24.0 0.02 0.49 0.09 100 1011.8
20260505183442 42 268 13.0 24.0 0.02 0.49 0.09 100 1011.8
20260505182945 42 268 13.0 24.0 0.02 0.49 0.09 100 1011.8
20260505182448 42 251 17.0 24.0 0.03 0.49 0.09 100 1011.6
20260505181951 42 256 16.0 26.0 0.03 0.49 0.09 100 1011.7
20260505181455 41 259 16.0 26.0 0.03 0.49 0.09 100 1011.6
20260505180957 42 259 15.0 26.0 0.03 0.49 0.09 100 1011.6
20260505180500 41 276 15.0 28.0 0.03 0.48 0.08 100 1011.6
20260505180003 41 266 17.0 28.0 0.03 0.48 0.08 100 1011.3
20260505175506 41 269 16.0 27.0 0.04 0.48 0.08 100 1011.4
20260505175009 41 278 16.0 27.0 0.04 0.48 0.08 100 1011.4
20260505174512 42 276 17.0 26.0 0.04 0.48 0.08 100 1011.3
20260505174015 42 269 17.0 26.0 0.03 0.47 0.07 100 1011.0
20260505173519 42 274 12.0 28.0 0.03 0.47 0.07 100 1010.9
20260505173021 42 259 20.0 28.0 0.04 0.47 0.07 100 1010.7
20260505172524 42 257 17.0 34.0 0.04 0.47 0.07 100 1010.6
20260505172027 42 273 20.0 34.0 0.03 0.46 0.06 100 1010.6
20260505171530 42 257 24.0 34.0 0.03 0.46 0.06 100 1010.7
20260505171033 42 265 16.0 27.0 0.03 0.46 0.06 100 1010.7
20260505170536 43 272 17.0 25.0 0.03 0.45 0.05 100 1010.7
20260505170039 43 270 16.0 25.0 0.03 0.45 0.05 100 1010.6
20260505165542 43 258 15.0 25.0 0.02 0.44 0.04 100 1010.6
20260505165045 43 255 16.0 27.0 0.02 0.44 0.04 100 1010.3
20260505164549 42 269 13.0 27.0 0.02 0.44 0.04 100 1010.4
20260505164051 42 267 13.0 22.0 0.03 0.44 0.04 100 1010.5
20260505163554 42 270 13.0 23.0 0.03 0.44 0.04 100 1010.4
20260505163149 42 269 13.0 24.0 0.03 0.43 0.03 100 1010.4
20260505163057 42 269 13.0 24.0 0.03 0.43 0.03 100 1010.4
20260505162636 42 274 16.0 24.0 0.03 0.43 0.03 100 1010.3
20260505162600 42 274 16.0 24.0 0.03 0.43 0.03 100 1010.3
20260505162103 42 271 14.0 22.0 0.03 0.43 0.03 100 1010.2
20260505161606 42 285 12.0 24.0 0.03 0.43 0.03 100 1010.2
20260505161109 42 284 16.0 30.0 0.03 0.43 0.03 100 1010.2
20260505160612 42 284 16.0 30.0 0.02 0.42 0.02 100 1010.2
20260505160115 42 293 21.0 30.0 0.02 0.42 0.02 100 1010.2
20260505153133 41 269 21.0 30.0 0.00 0.40 0.00 100 1009.9
20260505152636 41 270 21.0 31.0 0.00 0.40 0.00 100 1009.9
20260505152139 41 272 21.0 31.0 0.00 0.40 0.00 100 1009.8
20260505151642 41 262 21.0 32.0 0.00 0.40 0.00 100 1009.7
20260505151145 41 272 18.0 32.0 0.01 0.40 0.00 100 1009.8
20260505150648 41 263 22.0 32.0 0.01 0.40 0.00 100 1009.8
20260505150151 41 275 16.0 33.0 0.01 0.40 0.00 100 1009.7
20260505140227 42 249 18.0 27.0 0.07 0.39 0.39 100 1009.6
20260505130303 42 267 12.0 20.0 0.05 0.32 0.32 100 1009.4
20260505124812 42 282 11.0 25.0 0.04 0.30 0.30 100 1009.3
20260505124316 42 290 16.0 25.0 0.04 0.30 0.30 100 1009.3
20260505123818 42 286 10.0 21.0 0.03 0.29 0.29 100 1009.3
20260505123322 42 256 12.0 21.0 0.03 0.29 0.29 100 1009.3
20260505122824 42 261 15.0 21.0 0.01 0.27 0.27 100 1009.1
20260505122327 42 271 11.0 18.0 0.01 0.27 0.27 100 1008.9
20260505121830 42 264 9.0 18.0 0.01 0.27 0.27 100 1009.0
20260505121333 43 274 9.0 24.0 0.02 0.27 0.27 100 1009.1
20260505120836 43 255 9.0 25.0 0.02 0.27 0.27 100 1009.0
20260505115842 43 255 12.0 21.0 0.02 0.27 0.27 100 1009.2
20260505115345 43 247 12.0 24.0 0.01 0.26 0.26 100 1009.1
20260505114848 43 256 13.0 28.0 0.01 0.26 0.26 100 1009.1
20260505114351 43 268 16.0 30.0 0.02 0.26 0.26 100 1009.1
20260505113855 43 268 20.0 30.0 0.02 0.27 0.26 100 1009.1
20260505113357 43 266 16.0 26.0 0.03 0.27 0.26 100 1009.2
20260505112901 43 266 15.0 28.0 0.03 0.27 0.26 100 1009.3
20260505111907 43 267 16.0 26.0 0.04 0.27 0.26 100 1009.3
20260505111409 43 278 16.0 26.0 0.04 0.26 0.25 100 1009.4
20260505110913 43 272 16.0 32.0 0.04 0.26 0.25 100 1009.4
20260505110415 43 275 19.0 32.0 0.05 0.26 0.25 100 1009.3
20260505101943 42 282 12.0 20.0 0.08 0.23 0.22 100 1009.4
20260505101446 42 278 12.0 20.0 0.08 0.22 0.21 100 1009.3
20260505100949 42 282 10.0 17.0 0.09 0.22 0.21 99 1009.4
20260505095955 42 281 10.0 22.0 0.10 0.20 0.19 100 1009.5
20260505095457 42 270 11.0 22.0 0.12 0.20 0.19 100 1009.6
20260505095001 42 258 15.0 22.0 0.12 0.19 0.18 100 1009.5
20260505094504 42 266 14.0 22.0 0.13 0.19 0.18 100 1009.6
20260505094007 42 263 12.0 20.0 0.13 0.18 0.17 100 1009.6
20260505093510 42 255 9.0 16.0 0.14 0.18 0.17 100 1009.6
20260505093013 42 261 8.0 23.0 0.13 0.17 0.16 100 1009.8
20260505092516 42 254 7.0 23.0 0.12 0.16 0.15 100 1009.7
20260505092019 42 252 13.0 20.0 0.11 0.15 0.14 100 1009.9
20260505091522 41 257 11.0 20.0 0.10 0.14 0.13 99 1009.8
20260505091025 41 253 9.0 17.0 0.10 0.13 0.12 99 1009.9
20260505090527 41 262 12.0 17.0 0.10 0.12 0.11 99 1010.0
20260505090031 41 258 10.0 21.0 0.08 0.10 0.09 99 1009.9
20260505085534 42 272 14.0 21.0 0.06 0.08 0.07 99 1010.0
20260505085038 42 270 12.0 21.0 0.05 0.07 0.06 99 1010.1
20260505084539 42 273 6.0 20.0 0.04 0.06 0.05 99 1010.0
20260505084043 42 250 10.0 18.0 0.03 0.05 0.04 99 1010.2
20260505083546 42 239 9.0 20.0 0.02 0.04 0.03 99 1010.0
20260505083049 42 257 12.0 20.0 0.02 0.04 0.03 99 1010.0
20260505082552 42 266 10.0 20.0 0.02 0.04 0.03 99 1010.2
20260505082054 42 258 12.0 20.0 0.02 0.04 0.03 99 1010.3
20260505081557 41 268 14.0 23.0 0.02 0.04 0.03 99 1010.2
20260505081101 41 269 15.0 23.0 0.01 0.03 0.02 99 1010.4
20260505080604 41 266 12.0 24.0 0.00 0.02 0.01 99 1010.4
20260505080107 41 268 12.0 26.0 0.00 0.02 0.01 99 1010.6
20260505075610 41 274 16.0 26.0 0.00 0.02 0.01 99 1010.6
20260505074711 40 274 18.0 28.0 0.00 0.02 0.01 99 1010.5
20260505074616 40 274 18.0 28.0 0.00 0.02 0.01 99 1010.5
20260505073711 40 264 17.0 30.0 0.00 0.02 0.01 99 1010.5
20260505073622 40 264 17.0 30.0 0.00 0.02 0.01 99 1010.5
20260505073159 41 271 20.0 30.0 0.00 0.02 0.01 99 1010.2
20260505073125 41 271 20.0 30.0 0.00 0.02 0.01 99 1010.2
20260505072627 41 264 18.0 30.0 0.00 0.02 0.01 99 1010.2
20260505072130 41 266 20.0 30.0 0.00 0.02 0.01 99 1010.3
20260505071739 41 268 16.0 28.0 0.00 0.02 0.01 99 1010.4
20260505071634 41 268 16.0 28.0 0.00 0.02 0.01 99 1010.4
20260505071136 41 266 15.0 28.0 0.00 0.02 0.01 99 1010.4
20260505070640 41 260 18.0 30.0 0.00 0.02 0.01 99 1010.3
20260505070143 41 264 19.0 31.0 0.00 0.02 0.01 99 1010.5
20260505065646 41 265 21.0 31.0 0.00 0.02 0.01 99 1010.3
20260505065247 41 266 20.0 31.0 0.00 0.02 0.01 99 1010.4
20260505065149 41 266 20.0 31.0 0.00 0.02 0.01 99 1010.4
20260505064652 41 267 24.0 31.0 0.00 0.02 0.01 99 1010.7
20260505064154 41 265 19.0 29.0 0.00 0.02 0.01 99 1010.7
20260505063753 42 264 16.0 26.0 0.00 0.02 0.01 99 1011.0
20260505063658 42 264 16.0 26.0 0.00 0.02 0.01 99 1011.0
20260505063253 42 259 14.0 24.0 0.00 0.02 0.01 99 1010.8
20260505063201 42 259 14.0 24.0 0.00 0.02 0.01 99 1010.8
20260505062704 42 267 16.0 26.0 0.00 0.02 0.01 99 1010.5
20260505062207 42 269 17.0 26.0 0.01 0.02 0.01 99 1010.5
20260505061709 42 266 20.0 29.0 0.01 0.02 0.01 99 1010.6
20260505061303 42 267 20.0 29.0 0.01 0.02 0.01 98 1010.6
20260505061213 42 267 20.0 29.0 0.01 0.02 0.01 98 1010.6
20260505060715 41 280 16.0 32.0 0.01 0.02 0.01 98 1010.7
20260505060219 41 277 17.0 32.0 0.01 0.02 0.01 98 1010.6
20260505055224 41 269 22.0 29.0 0.01 0.02 0.01 98 1010.8
20260505054728 41 268 19.0 28.0 0.01 0.02 0.01 98 1011.0
20260505054231 41 261 21.0 32.0 0.01 0.02 0.01 98 1010.7
20260505053237 41 263 18.0 32.0 0.01 0.02 0.01 98 1011.0
20260505052740 41 259 22.0 32.0 0.01 0.02 0.01 98 1010.9
20260505052243 41 248 17.0 35.0 0.00 0.01 0.00 97 1011.0
20260505051746 41 251 20.0 35.0 0.00 0.01 0.00 97 1011.0
20260505051248 41 257 16.0 31.0 0.00 0.01 0.00 97 1011.1
20260505050752 41 266 13.0 31.0 0.00 0.01 0.00 97 1011.2
20260505041324 42 258 13.0 24.0 0.00 0.01 0.00 98 1011.3
20260505040827 42 271 10.0 25.0 0.00 0.01 0.00 98 1011.1
20260505040331 42 251 17.0 28.0 0.00 0.01 0.00 97 1011.3
20260505035834 42 276 11.0 28.0 0.00 0.01 0.00 97 1011.2
20260505035337 42 273 13.0 28.0 0.00 0.01 0.00 97 1011.2
20260505034839 42 281 12.0 28.0 0.00 0.01 0.00 97 1011.1
20260505034343 42 268 12.0 28.0 0.00 0.01 0.00 97 1011.1
20260505033846 42 253 16.0 28.0 0.00 0.01 0.00 97 1011.0
20260505033348 43 270 11.0 24.0 0.00 0.01 0.00 97 1010.9
20260505032355 43 256 13.0 31.0 0.00 0.01 0.00 97 1010.8
20260505031857 43 265 21.0 32.0 0.00 0.01 0.00 96 1010.7
20260505031400 43 253 16.0 28.0 0.00 0.01 0.00 96 1010.6
20260505030903 43 266 13.0 20.0 0.00 0.01 0.00 96 1010.8
20260505030406 43 264 10.0 23.0 0.00 0.01 0.00 96 1010.7
20260505025909 43 261 13.0 24.0 0.00 0.01 0.00 96 1010.7
20260505025412 43 281 13.0 28.0 0.00 0.01 0.00 95 1010.6
20260505024915 43 278 11.0 28.0 0.00 0.01 0.00 95 1010.5
20260505024418 43 276 11.0 28.0 0.00 0.01 0.00 94 1010.6
20260505023922 43 278 16.0 28.0 0.00 0.01 0.00 94 1010.4
20260505023424 43 267 12.0 27.0 0.00 0.01 0.00 94 1010.5
20260505022927 43 278 16.0 27.0 0.00 0.01 0.00 93 1010.2
20260505022431 43 256 13.0 32.0 0.00 0.01 0.00 93 1010.6
20260505021933 44 255 17.0 33.0 0.00 0.01 0.00 93 1010.5
20260505021437 44 255 24.0 33.0 0.00 0.01 0.00 92 1010.4
20260505020940 44 259 13.0 25.0 0.00 0.01 0.00 91 1010.5
20260505020443 44 265 14.0 29.0 0.00 0.01 0.00 91 1010.4
20260505015946 44 262 14.0 29.0 0.00 0.01 0.00 91 1010.2
20260505015449 44 253 17.0 24.0 0.00 0.01 0.00 90 1010.2
20260505014952 45 260 15.0 22.0 0.00 0.01 0.00 89 1010.4
20260505014455 45 268 14.0 30.0 0.00 0.01 0.00 89 1010.4
20260505013958 45 268 17.0 29.0 0.00 0.01 0.00 89 1010.5
20260505013004 46 273 18.0 27.0 0.00 0.01 0.00 88 1010.5
20260505012506 46 277 19.0 30.0 0.00 0.01 0.00 87 1010.4
20260505012009 46 280 15.0 31.0 0.00 0.01 0.00 86 1010.5
20260505011512 46 288 19.0 31.0 0.00 0.01 0.00 86 1010.4
20260505011046 47 287 20.0 30.0 0.00 0.01 0.00 85 1010.5
20260505011015 47 287 20.0 30.0 0.00 0.01 0.00 85 1010.5
20260505010518 47 277 16.0 28.0 0.00 0.01 0.00 85 1010.5
20260505010021 47 283 17.0 27.0 0.00 0.01 0.00 84 1010.7
20260505005524 48 280 16.0 30.0 0.00 0.01 0.00 84 1010.8
20260505005027 48 286 18.0 30.0 0.00 0.01 0.00 83 1010.7
20260505004629 48 285 18.0 32.0 0.00 0.01 0.00 82 1010.6
20260505004530 48 285 18.0 32.0 0.00 0.01 0.00 82 1010.6
20260505004108 48 286 18.0 37.0 0.00 0.01 0.00 83 1010.6
20260505004033 48 286 18.0 37.0 0.00 0.01 0.00 83 1010.6
20260505003630 48 258 27.0 37.0 0.00 0.01 0.00 82 1010.6
20260505003537 48 258 27.0 37.0 0.00 0.01 0.00 82 1010.6
20260505003040 48 265 18.0 32.0 0.00 0.01 0.00 82 1010.7
20260505002543 49 265 19.0 30.0 0.00 0.01 0.00 81 1011.0
20260505002046 49 253 13.0 32.0 0.00 0.01 0.00 81 1011.0
20260505001051 48 254 20.0 32.0 0.00 0.01 0.00 82 1010.8
20260505000555 48 271 13.0 30.0 0.00 0.01 0.00 82 1010.8
20260505000058 49 265 19.0 30.0 0.00 0.01 0.00 80 1010.8
20260504235713 49 264 14.0 31.0 0.00 0.01 0.00 80 1010.8
20260504235601 49 264 14.0 31.0 0.00 0.01 0.00 80 1010.8
20260504235104 49 252 23.0 31.0 0.00 0.01 0.00 80 1010.8
20260504234738 49 257 18.0 32.0 0.00 0.01 0.00 79 1010.7
20260504234607 49 257 18.0 32.0 0.00 0.01 0.00 79 1010.7
20260504234225 49 251 20.0 34.0 0.00 0.01 0.00 79 1010.9
20260504234109 49 251 20.0 34.0 0.00 0.01 0.00 79 1010.9
20260504233613 49 246 23.0 34.0 0.00 0.01 0.00 78 1010.8
20260504233116 49 251 19.0 30.0 0.00 0.01 0.00 78 1010.9
20260504232738 49 275 14.0 30.0 0.00 0.01 0.00 78 1010.8
20260504232619 49 275 14.0 30.0 0.00 0.01 0.00 78 1010.8
20260504232122 49 258 16.0 28.0 0.00 0.01 0.00 77 1010.7
20260504231128 50 280 15.0 26.0 0.00 0.01 0.00 76 1010.9
20260504230734 50 265 11.0 30.0 0.00 0.01 0.00 78 1011.0